| time (UTC) | temp F | wind direction | speed knots | gust knots | rain 1hr in | rain 24hr in | rain mn in | humidity % | barometer mb |
| 20260507125108 | 53 | 325 | 0.9 | 1.7 | 0.00 | 0.19 | 0.10 | 83 | 1008.3 |
| 20260507124527 | 52 | 312 | 0.9 | 1.7 | 0.00 | 0.19 | 0.10 | 85 | 1008.3 |
| 20260507124048 | 52 | 358 | 0.9 | 1.7 | 0.00 | 0.19 | 0.10 | 87 | 1008.3 |
| 20260507123527 | 51 | 353 | 0.9 | 2.6 | 0.00 | 0.19 | 0.10 | 87 | 1008.4 |
| 20260507123027 | 51 | 353 | 0.0 | 1.7 | 0.00 | 0.19 | 0.10 | 88 | 1008.2 |
| 20260507122527 | 51 | 353 | 0.0 | 1.7 | 0.00 | 0.19 | 0.10 | 88 | 1008.2 |
| 20260507122027 | 50 | 353 | 0.9 | 1.7 | 0.00 | 0.19 | 0.10 | 90 | 1008.2 |
| 20260507121529 | 50 | 329 | 0.0 | 0.9 | 0.00 | 0.19 | 0.10 | 90 | 1008.3 |
| 20260507121049 | 50 | 27 | 0.0 | 1.7 | 0.00 | 0.19 | 0.10 | 91 | 1008.2 |
| 20260507120528 | 49 | 27 | 0.0 | 1.7 | 0.00 | 0.19 | 0.10 | 92 | 1008.1 |
| 20260507120028 | 49 | 26 | 0.0 | 1.7 | 0.00 | 0.19 | 0.10 | 93 | 1008.1 |
| 20260507115528 | 49 | 0.0 | 0.0 | 0.00 | 0.19 | 0.10 | 94 | 1008.1 | |
| 20260507115028 | 49 | 293 | 0.0 | 0.9 | 0.00 | 0.19 | 0.10 | 95 | 1008.1 |
| 20260507114548 | 49 | 0.0 | 0.9 | 0.00 | 0.19 | 0.10 | 95 | 1008.1 | |
| 20260507114028 | 48 | 293 | 0.0 | 0.9 | 0.00 | 0.19 | 0.10 | 95 | 1008.0 |
| 20260507113528 | 48 | 0.0 | 0.9 | 0.00 | 0.19 | 0.10 | 96 | 1008.0 | |
| 20260507113027 | 48 | 282 | 0.0 | 0.9 | 0.00 | 0.19 | 0.10 | 97 | 1008.1 |
| 20260507112528 | 48 | 0.0 | 0.0 | 0.00 | 0.19 | 0.10 | 97 | 1008.1 | |
| 20260507112027 | 48 | 0.0 | 0.0 | 0.00 | 0.19 | 0.10 | 97 | 1008.0 | |
| 20260507111528 | 48 | 0.0 | 0.0 | 0.00 | 0.19 | 0.10 | 97 | 1007.9 | |
| 20260507111047 | 48 | 0.0 | 0.0 | 0.00 | 0.19 | 0.10 | 97 | 1008.0 | |
| 20260507110527 | 48 | 0.0 | 0.0 | 0.00 | 0.19 | 0.10 | 97 | 1007.8 | |
| 20260507110027 | 48 | 0.0 | 0.0 | 0.00 | 0.19 | 0.10 | 97 | 1007.9 | |
| 20260507105527 | 48 | 0.0 | 0.0 | 0.00 | 0.19 | 0.10 | 97 | 1008.0 | |
| 20260507105029 | 48 | 0.0 | 0.0 | 0.01 | 0.19 | 0.10 | 97 | 1008.1 | |
| 20260507104528 | 48 | 0.0 | 0.0 | 0.01 | 0.19 | 0.10 | 97 | 1008.2 | |
| 20260507104028 | 48 | 233 | 0.0 | 0.9 | 0.02 | 0.19 | 0.10 | 96 | 1008.2 |
| 20260507103528 | 48 | 0.0 | 0.9 | 0.02 | 0.19 | 0.10 | 96 | 1008.0 | |
| 20260507103028 | 48 | 0.0 | 0.0 | 0.02 | 0.19 | 0.10 | 96 | 1007.7 | |
| 20260507102548 | 48 | 0.0 | 0.9 | 0.02 | 0.19 | 0.10 | 96 | 1007.6 | |
| 20260507102108 | 48 | 0.0 | 0.0 | 0.02 | 0.19 | 0.10 | 96 | 1007.4 | |
| 20260507101528 | 48 | 0.0 | 0.0 | 0.04 | 0.19 | 0.10 | 96 | 1007.2 | |
| 20260507101048 | 48 | 0.0 | 0.0 | 0.05 | 0.19 | 0.10 | 96 | 1007.3 | |
| 20260507100528 | 48 | 37 | 0.0 | 0.9 | 0.05 | 0.18 | 0.09 | 96 | 1007.4 |
| 20260507100028 | 48 | 0.0 | 0.0 | 0.05 | 0.18 | 0.09 | 96 | 1007.3 | |
| 20260507095528 | 48 | 0.0 | 0.0 | 0.05 | 0.18 | 0.09 | 95 | 1007.3 | |
| 20260507095027 | 48 | 0.0 | 0.0 | 0.06 | 0.18 | 0.09 | 95 | 1007.2 | |
| 20260507094527 | 48 | 37 | 0.0 | 0.9 | 0.05 | 0.17 | 0.08 | 96 | 1007.2 |
| 20260507094027 | 49 | 52 | 0.0 | 1.7 | 0.05 | 0.17 | 0.08 | 95 | 1007.1 |
| 20260507093527 | 49 | 94 | 0.0 | 1.7 | 0.05 | 0.17 | 0.08 | 95 | 1007.3 |
| 20260507093029 | 49 | 136 | 0.0 | 0.9 | 0.05 | 0.17 | 0.08 | 95 | 1007.5 |
| 20260507092527 | 49 | 137 | 0.0 | 0.9 | 0.05 | 0.17 | 0.08 | 96 | 1007.4 |
| 20260507092029 | 49 | 0.0 | 0.9 | 0.05 | 0.17 | 0.08 | 95 | 1007.2 | |
| 20260507091528 | 49 | 136 | 0.0 | 0.9 | 0.04 | 0.15 | 0.06 | 95 | 1007.3 |
| 20260507091028 | 50 | 136 | 0.0 | 0.9 | 0.02 | 0.14 | 0.05 | 95 | 1007.4 |
| 20260507090528 | 50 | 171 | 0.0 | 1.7 | 0.02 | 0.13 | 0.04 | 95 | 1007.6 |
| 20260507090028 | 50 | 230 | 0.0 | 0.9 | 0.02 | 0.13 | 0.04 | 95 | 1007.6 |
| 20260507085528 | 50 | 0.0 | 0.9 | 0.02 | 0.13 | 0.04 | 95 | 1007.5 | |
| 20260507085048 | 50 | 230 | 0.0 | 0.9 | 0.01 | 0.12 | 0.03 | 94 | 1007.4 |
| 20260507084528 | 50 | 229 | 0.0 | 0.9 | 0.01 | 0.12 | 0.03 | 95 | 1007.5 |
| 20260507084048 | 50 | 0.0 | 0.9 | 0.02 | 0.12 | 0.03 | 95 | 1007.4 | |
| 20260507083527 | 51 | 229 | 0.0 | 0.9 | 0.02 | 0.12 | 0.03 | 95 | 1007.3 |
| 20260507083027 | 51 | 0.0 | 0.0 | 0.02 | 0.12 | 0.03 | 95 | 1007.2 | |
| 20260507082527 | 51 | 0.0 | 0.0 | 0.02 | 0.12 | 0.03 | 94 | 1007.1 | |
| 20260507082047 | 51 | 230 | 0.0 | 0.9 | 0.02 | 0.12 | 0.03 | 94 | 1007.0 |
| 20260507081527 | 51 | 223 | 0.0 | 1.7 | 0.02 | 0.11 | 0.02 | 94 | 1006.8 |
| 20260507081027 | 51 | 0.0 | 0.0 | 0.02 | 0.11 | 0.02 | 92 | 1006.9 | |
| 20260507080526 | 51 | 326 | 0.0 | 0.9 | 0.02 | 0.11 | 0.02 | 92 | 1007.3 |
| 20260507080029 | 52 | 326 | 0.0 | 2.6 | 0.02 | 0.11 | 0.02 | 91 | 1007.1 |
| 20260507075528 | 52 | 335 | 0.9 | 2.6 | 0.02 | 0.11 | 0.02 | 91 | 1007.3 |
| 20260507075028 | 53 | 90 | 0.9 | 2.6 | 0.02 | 0.11 | 0.02 | 91 | 1007.1 |
| 20260507074528 | 53 | 13 | 0.9 | 1.7 | 0.02 | 0.11 | 0.02 | 90 | 1006.9 |
| 20260507074028 | 54 | 18 | 0.0 | 1.7 | 0.01 | 0.10 | 0.01 | 90 | 1007.0 |
| 20260507073528 | 54 | 18 | 0.0 | 0.9 | 0.00 | 0.09 | 0.00 | 90 | 1007.2 |
| 20260507073028 | 54 | 18 | 0.0 | 0.9 | 0.00 | 0.09 | 0.00 | 90 | 1006.8 |
| 20260507072527 | 54 | 20 | 0.0 | 1.7 | 0.00 | 0.09 | 0.00 | 90 | 1006.4 |
| 20260507072027 | 54 | 26 | 0.9 | 1.7 | 0.00 | 0.09 | 0.00 | 90 | 1006.3 |
| 20260507071527 | 54 | 30 | 0.9 | 0.9 | 0.00 | 0.09 | 0.00 | 90 | 1006.3 |
| 20260507071047 | 54 | 30 | 0.0 | 0.9 | 0.00 | 0.09 | 0.00 | 90 | 1006.3 |
| 20260507070527 | 54 | 30 | 0.0 | 0.9 | 0.00 | 0.09 | 0.00 | 90 | 1006.5 |
| 20260507070027 | 54 | 30 | 0.0 | 0.9 | 0.00 | 0.09 | 0.00 | 90 | 1006.4 |
| 20260507065527 | 54 | 30 | 0.0 | 0.9 | 0.00 | 0.09 | 0.00 | 90 | 1006.2 |
| 20260507065027 | 54 | 30 | 0.0 | 0.9 | 0.00 | 0.09 | 0.00 | 90 | 1006.5 |
| 20260507064529 | 54 | 30 | 0.0 | 1.7 | 0.00 | 0.09 | 0.00 | 90 | 1006.2 |
| 20260507064028 | 55 | 30 | 0.0 | 1.7 | 0.00 | 0.09 | 0.00 | 90 | 1006.3 |
| 20260507063528 | 55 | 31 | 0.9 | 2.6 | 0.00 | 0.09 | 0.00 | 90 | 1006.3 |
| 20260507063028 | 55 | 181 | 0.0 | 1.7 | 0.00 | 0.09 | 0.00 | 91 | 1006.4 |
| 20260507062528 | 55 | 20 | 0.0 | 2.6 | 0.00 | 0.09 | 0.00 | 90 | 1006.5 |
| 20260507062048 | 55 | 10 | 0.9 | 2.6 | 0.00 | 0.09 | 0.00 | 90 | 1006.4 |
| 20260507061528 | 55 | 43 | 0.9 | 0.9 | 0.00 | 0.09 | 0.00 | 90 | 1006.2 |
| 20260507061027 | 55 | 44 | 0.0 | 0.9 | 0.00 | 0.09 | 0.00 | 90 | 1006.3 |
| 20260507060527 | 55 | 44 | 0.0 | 1.7 | 0.00 | 0.09 | 0.00 | 89 | 1006.4 |
| 20260507060027 | 55 | 48 | 0.0 | 1.7 | 0.00 | 0.09 | 0.00 | 90 | 1006.4 |
| 20260507055527 | 55 | 71 | 0.0 | 0.9 | 0.00 | 0.09 | 0.00 | 89 | 1006.6 |
| 20260507055027 | 56 | 72 | 0.0 | 1.7 | 0.00 | 0.09 | 0.00 | 90 | 1006.6 |
| 20260507054527 | 56 | 72 | 0.0 | 0.9 | 0.00 | 0.09 | 0.00 | 90 | 1006.5 |
| 20260507054027 | 56 | 52 | 0.9 | 2.6 | 0.00 | 0.09 | 0.00 | 90 | 1006.7 |
| 20260507053547 | 56 | 27 | 0.9 | 1.7 | 0.00 | 0.09 | 0.00 | 90 | 1006.8 |
| 20260507053029 | 56 | 28 | 0.0 | 0.9 | 0.00 | 0.09 | 0.00 | 91 | 1006.7 |
| 20260507052528 | 56 | 28 | 0.0 | 1.7 | 0.00 | 0.09 | 0.00 | 91 | 1006.5 |
| 20260507052028 | 57 | 26 | 0.0 | 1.7 | 0.00 | 0.09 | 0.00 | 91 | 1006.4 |
| 20260507051528 | 57 | 32 | 0.0 | 1.7 | 0.00 | 0.09 | 0.00 | 90 | 1006.2 |
| 20260507051028 | 57 | 352 | 0.9 | 1.7 | 0.00 | 0.09 | 0.00 | 90 | 1006.4 |
| 20260507050527 | 57 | 336 | 0.9 | 1.7 | 0.00 | 0.09 | 0.00 | 90 | 1006.3 |
| 20260507050048 | 57 | 344 | 0.9 | 2.6 | 0.00 | 0.09 | 0.00 | 90 | 1006.4 |
| 20260507045528 | 58 | 3 | 0.9 | 1.7 | 0.00 | 0.09 | 0.00 | 91 | 1006.6 |
| 20260507045108 | 58 | 19 | 0.9 | 2.6 | 0.00 | 0.09 | 0.00 | 92 | 1006.5 |
| 20260507044527 | 58 | 352 | 0.9 | 2.6 | 0.00 | 0.09 | 0.00 | 94 | 1006.6 |
| 20260507044027 | 58 | 71 | 0.0 | 0.9 | 0.00 | 0.09 | 0.00 | 94 | 1006.4 |
| 20260507043547 | 58 | 0 | 0.0 | 1.7 | 0.00 | 0.09 | 0.00 | 95 | 1006.3 |
| 20260507043027 | 58 | 218 | 0.9 | 0.9 | 0.00 | 0.09 | 0.00 | 95 | 1006.3 |
| 20260507042527 | 58 | 190 | 0.0 | 1.7 | 0.00 | 0.09 | 0.00 | 95 | 1006.3 |
| 20260507042027 | 59 | 185 | 0.9 | 2.6 | 0.01 | 0.09 | 0.00 | 96 | 1006.4 |
| 20260507041549 | 59 | 353 | 0.9 | 1.7 | 0.01 | 0.09 | 0.00 | 96 | 1006.4 |
| 20260507041028 | 59 | 63 | 0.0 | 1.7 | 0.01 | 0.09 | 0.00 | 97 | 1006.5 |
| 20260507040528 | 59 | 76 | 0.0 | 1.7 | 0.00 | 0.09 | 0.00 | 97 | 1006.7 |
| 20260507040108 | 59 | 124 | 0.0 | 0.9 | 0.00 | 0.09 | 0.00 | 97 | 1006.8 |
| 20260507035549 | 59 | 119 | 0.0 | 0.9 | 0.00 | 0.09 | 0.09 | 97 | 1006.6 |
| 20260507035028 | 59 | 119 | 0.0 | 0.9 | 0.00 | 0.09 | 0.09 | 97 | 1006.5 |
| 20260507034548 | 59 | 131 | 0.0 | 1.7 | 0.00 | 0.09 | 0.09 | 97 | 1006.3 |
| 20260507034027 | 59 | 126 | 0.0 | 1.7 | 0.00 | 0.09 | 0.09 | 97 | 1006.3 |
| 20260507033527 | 59 | 271 | 0.0 | 1.7 | 0.00 | 0.09 | 0.09 | 96 | 1006.1 |
| 20260507033047 | 59 | 313 | 0.0 | 2.6 | 0.00 | 0.09 | 0.09 | 96 | 1006.1 |
| 20260507032527 | 59 | 56 | 0.9 | 2.6 | 0.00 | 0.09 | 0.09 | 96 | 1006.2 |
| 20260507032027 | 59 | 187 | 0.0 | 2.6 | 0.00 | 0.09 | 0.09 | 95 | 1006.0 |
| 20260507031527 | 59 | 251 | 0.9 | 3.5 | 0.00 | 0.09 | 0.09 | 95 | 1005.8 |
| 20260507031027 | 59 | 113 | 0.9 | 3.5 | 0.00 | 0.09 | 0.09 | 95 | 1005.8 |
| 20260507030527 | 59 | 190 | 0.9 | 2.6 | 0.00 | 0.09 | 0.09 | 95 | 1005.8 |
| 20260507030029 | 59 | 269 | 0.0 | 1.7 | 0.00 | 0.09 | 0.09 | 95 | 1005.7 |
| 20260507025528 | 59 | 282 | 0.9 | 5.2 | 0.00 | 0.09 | 0.09 | 95 | 1005.6 |
| 20260507025028 | 59 | 205 | 0.0 | 5.2 | 0.00 | 0.09 | 0.09 | 95 | 1005.6 |
| 20260507024528 | 59 | 223 | 0.9 | 6.1 | 0.00 | 0.09 | 0.09 | 95 | 1005.8 |
| 20260507024028 | 59 | 209 | 0.9 | 6.1 | 0.00 | 0.09 | 0.09 | 95 | 1005.9 |
| 20260507023528 | 59 | 216 | 0.9 | 2.6 | 0.00 | 0.09 | 0.09 | 95 | 1005.9 |
| 20260507023028 | 59 | 120 | 0.0 | 2.6 | 0.00 | 0.09 | 0.09 | 95 | 1006.0 |
| 20260507022527 | 59 | 215 | 0.9 | 5.2 | 0.00 | 0.09 | 0.09 | 95 | 1005.9 |
| 20260507022027 | 59 | 204 | 0.9 | 2.6 | 0.00 | 0.09 | 0.09 | 95 | 1005.8 |
| 20260507021527 | 59 | 221 | 0.9 | 3.5 | 0.00 | 0.09 | 0.09 | 95 | 1005.9 |
| 20260507021029 | 59 | 250 | 0.9 | 6.1 | 0.00 | 0.09 | 0.09 | 96 | 1005.9 |
| 20260507020527 | 59 | 202 | 0.0 | 2.6 | 0.00 | 0.09 | 0.09 | 96 | 1005.9 |
| 20260507020027 | 59 | 220 | 0.0 | 1.7 | 0.00 | 0.09 | 0.09 | 96 | 1005.8 |
| 20260507015529 | 59 | 242 | 0.9 | 2.6 | 0.00 | 0.09 | 0.09 | 96 | 1005.8 |
| 20260507015028 | 59 | 249 | 0.9 | 2.6 | 0.00 | 0.09 | 0.09 | 96 | 1005.9 |
| 20260507014528 | 59 | 206 | 0.9 | 5.2 | 0.00 | 0.09 | 0.09 | 95 | 1005.9 |
| 20260507014028 | 59 | 210 | 0.9 | 5.2 | 0.00 | 0.09 | 0.09 | 96 | 1005.9 |
| 20260507013548 | 59 | 198 | 1.7 | 5.2 | 0.00 | 0.09 | 0.09 | 96 | 1005.9 |
| 20260507013028 | 59 | 261 | 0.9 | 3.5 | 0.00 | 0.09 | 0.09 | 96 | 1005.8 |
| 20260507012527 | 58 | 211 | 1.7 | 8.7 | 0.00 | 0.09 | 0.09 | 96 | 1006.0 |
| 20260507012028 | 58 | 210 | 1.7 | 7.0 | 0.00 | 0.09 | 0.09 | 96 | 1006.0 |
| 20260507011527 | 58 | 208 | 0.9 | 6.1 | 0.00 | 0.09 | 0.09 | 96 | 1006.0 |
| 20260507011028 | 58 | 264 | 1.7 | 6.1 | 0.00 | 0.09 | 0.09 | 96 | 1006.1 |
| 20260507010527 | 58 | 232 | 1.7 | 7.8 | 0.00 | 0.09 | 0.09 | 95 | 1006.1 |
| 20260507010027 | 58 | 193 | 1.7 | 7.8 | 0.00 | 0.09 | 0.09 | 95 | 1006.1 |
| 20260507005527 | 58 | 237 | 0.9 | 3.5 | 0.00 | 0.09 | 0.09 | 95 | 1006.2 |
| 20260507005047 | 58 | 177 | 0.9 | 6.1 | 0.00 | 0.09 | 0.09 | 95 | 1006.1 |
| 20260507004527 | 58 | 233 | 0.9 | 5.2 | 0.00 | 0.09 | 0.09 | 95 | 1006.2 |
| 20260507004027 | 58 | 214 | 1.7 | 5.2 | 0.00 | 0.09 | 0.09 | 95 | 1006.1 |
| 20260507003526 | 58 | 243 | 0.9 | 6.1 | 0.00 | 0.09 | 0.09 | 95 | 1006.1 |
| 20260507003029 | 58 | 244 | 0.9 | 6.1 | 0.00 | 0.09 | 0.09 | 95 | 1006.1 |
| 20260507002528 | 58 | 177 | 1.7 | 6.1 | 0.01 | 0.09 | 0.09 | 96 | 1006.2 |
| 20260507002028 | 58 | 190 | 1.7 | 5.2 | 0.01 | 0.09 | 0.09 | 95 | 1006.2 |
| 20260507001528 | 58 | 211 | 1.7 | 7.8 | 0.02 | 0.09 | 0.09 | 95 | 1006.1 |
| 20260507001028 | 58 | 192 | 1.7 | 7.8 | 0.02 | 0.09 | 0.09 | 95 | 1005.9 |
| 20260507000528 | 59 | 198 | 1.7 | 6.1 | 0.03 | 0.09 | 0.09 | 95 | 1005.8 |
| 20260507000028 | 59 | 210 | 1.7 | 6.1 | 0.02 | 0.08 | 0.08 | 95 | 1005.7 |
| 20260506235527 | 59 | 211 | 2.6 | 8.7 | 0.02 | 0.08 | 0.08 | 95 | 1005.8 |
| 20260506235027 | 59 | 199 | 1.7 | 6.1 | 0.02 | 0.08 | 0.08 | 95 | 1005.8 |
| 20260506234547 | 59 | 211 | 1.7 | 7.8 | 0.02 | 0.08 | 0.08 | 95 | 1005.8 |
| 20260506234027 | 59 | 210 | 0.9 | 5.2 | 0.02 | 0.08 | 0.08 | 95 | 1005.9 |
| 20260506233527 | 59 | 187 | 0.9 | 6.1 | 0.02 | 0.08 | 0.08 | 95 | 1005.8 |
| 20260506233027 | 59 | 224 | 1.7 | 7.0 | 0.02 | 0.08 | 0.08 | 95 | 1005.7 |
| 20260506232527 | 59 | 167 | 0.9 | 7.0 | 0.02 | 0.08 | 0.08 | 94 | 1005.8 |
| 20260506232026 | 60 | 238 | 0.9 | 6.1 | 0.01 | 0.07 | 0.07 | 94 | 1005.7 |
| 20260506231528 | 60 | 178 | 0.9 | 5.2 | 0.01 | 0.07 | 0.07 | 94 | 1005.7 |
| 20260506231028 | 60 | 195 | 0.9 | 5.2 | 0.00 | 0.06 | 0.06 | 93 | 1005.8 |
| 20260506230528 | 60 | 182 | 0.9 | 6.1 | 0.00 | 0.06 | 0.06 | 94 | 1005.8 |
| 20260506230028 | 60 | 214 | 1.7 | 6.1 | 0.00 | 0.06 | 0.06 | 94 | 1005.7 |
| 20260506225528 | 60 | 205 | 0.9 | 7.8 | 0.00 | 0.06 | 0.06 | 93 | 1005.8 |
| 20260506225027 | 60 | 201 | 2.6 | 12.2 | 0.01 | 0.06 | 0.06 | 94 | 1005.9 |
| 20260506224527 | 60 | 206 | 1.7 | 6.1 | 0.01 | 0.06 | 0.06 | 94 | 1005.9 |
| 20260506224027 | 60 | 219 | 1.7 | 7.8 | 0.02 | 0.06 | 0.06 | 94 | 1005.9 |
| 20260506223527 | 60 | 165 | 1.7 | 9.6 | 0.02 | 0.06 | 0.06 | 94 | 1006.0 |
| 20260506223027 | 60 | 221 | 0.9 | 9.6 | 0.02 | 0.06 | 0.06 | 94 | 1006.0 |
| 20260506222527 | 60 | 180 | 2.6 | 9.6 | 0.02 | 0.06 | 0.06 | 94 | 1006.1 |
| 20260506222029 | 60 | 187 | 2.6 | 8.7 | 0.02 | 0.06 | 0.06 | 94 | 1006.2 |
| 20260506221528 | 60 | 182 | 1.7 | 8.7 | 0.02 | 0.06 | 0.06 | 94 | 1006.3 |
| 20260506221028 | 60 | 207 | 1.7 | 7.8 | 0.02 | 0.06 | 0.06 | 93 | 1006.2 |
| 20260506220529 | 60 | 210 | 1.7 | 7.8 | 0.02 | 0.06 | 0.06 | 93 | 1006.3 |
| 20260506220028 | 60 | 215 | 1.7 | 8.7 | 0.01 | 0.05 | 0.05 | 92 | 1006.2 |
| 20260506215528 | 60 | 175 | 2.6 | 9.6 | 0.01 | 0.05 | 0.05 | 91 | 1006.3 |
| 20260506215048 | 61 | 221 | 0.9 | 5.2 | 0.01 | 0.05 | 0.05 | 90 | 1006.5 |
| 20260506214528 | 61 | 193 | 1.7 | 6.1 | 0.00 | 0.05 | 0.05 | 89 | 1006.6 |
| 20260506214028 | 61 | 200 | 2.6 | 13.0 | 0.00 | 0.04 | 0.04 | 87 | 1006.7 |
| 20260506213547 | 61 | 197 | 3.5 | 13.0 | 0.00 | 0.04 | 0.04 | 87 | 1006.6 |
| 20260506213027 | 61 | 208 | 1.7 | 9.6 | 0.00 | 0.04 | 0.04 | 88 | 1006.7 |
| 20260506212527 | 61 | 204 | 1.7 | 5.2 | 0.01 | 0.04 | 0.04 | 88 | 1006.6 |
| 20260506212027 | 61 | 166 | 0.9 | 5.2 | 0.01 | 0.04 | 0.04 | 88 | 1006.6 |
| 20260506211527 | 61 | 198 | 1.7 | 6.1 | 0.01 | 0.04 | 0.04 | 88 | 1006.7 |
| 20260506211027 | 61 | 236 | 0.9 | 3.5 | 0.01 | 0.04 | 0.04 | 88 | 1006.6 |
| 20260506210529 | 61 | 248 | 0.9 | 7.8 | 0.01 | 0.04 | 0.04 | 88 | 1006.7 |
| 20260506210030 | 61 | 158 | 0.9 | 7.0 | 0.01 | 0.04 | 0.04 | 88 | 1006.7 |
| 20260506205528 | 61 | 224 | 0.9 | 5.2 | 0.01 | 0.04 | 0.04 | 88 | 1006.8 |
| 20260506205028 | 61 | 223 | 2.6 | 8.7 | 0.01 | 0.04 | 0.04 | 87 | 1006.8 |
| 20260506204548 | 61 | 200 | 0.9 | 7.8 | 0.02 | 0.04 | 0.04 | 87 | 1006.9 |
| 20260506204028 | 62 | 164 | 1.7 | 6.1 | 0.02 | 0.04 | 0.04 | 86 | 1007.0 |
| 20260506203528 | 62 | 188 | 1.7 | 8.7 | 0.02 | 0.04 | 0.04 | 86 | 1007.0 |
| 20260506203028 | 62 | 225 | 0.9 | 6.1 | 0.02 | 0.04 | 0.04 | 85 | 1007.0 |
| 20260506202528 | 62 | 200 | 1.7 | 6.1 | 0.02 | 0.04 | 0.04 | 85 | 1007.0 |
| 20260506202028 | 62 | 202 | 1.7 | 8.7 | 0.03 | 0.04 | 0.04 | 86 | 1006.9 |
| 20260506201528 | 62 | 183 | 0.9 | 6.1 | 0.03 | 0.04 | 0.04 | 86 | 1006.9 |
| 20260506201028 | 62 | 201 | 0.9 | 3.5 | 0.04 | 0.04 | 0.04 | 85 | 1006.7 |
| 20260506200528 | 63 | 149 | 1.7 | 6.1 | 0.04 | 0.04 | 0.04 | 85 | 1006.8 |
| 20260506200028 | 63 | 129 | 0.9 | 5.2 | 0.04 | 0.04 | 0.04 | 85 | 1006.7 |
| 20260506195528 | 63 | 201 | 1.7 | 6.1 | 0.03 | 0.03 | 0.03 | 84 | 1006.8 |
| 20260506195027 | 63 | 185 | 1.7 | 9.6 | 0.03 | 0.03 | 0.03 | 83 | 1006.9 |
| 20260506194527 | 64 | 192 | 1.7 | 6.1 | 0.03 | 0.03 | 0.03 | 83 | 1006.9 |
| 20260506194047 | 64 | 185 | 0.9 | 3.5 | 0.02 | 0.02 | 0.02 | 82 | 1007.1 |
| 20260506193529 | 65 | 192 | 0.9 | 3.5 | 0.02 | 0.02 | 0.02 | 80 | 1007.0 |
| 20260506193029 | 65 | 235 | 0.9 | 6.1 | 0.02 | 0.02 | 0.02 | 77 | 1007.0 |
| 20260506192527 | 66 | 221 | 1.7 | 12.2 | 0.01 | 0.01 | 0.01 | 74 | 1007.0 |
| 20260506192028 | 66 | 215 | 1.7 | 12.2 | 0.01 | 0.01 | 0.01 | 73 | 1007.0 |
| 20260506191528 | 67 | 265 | 0.9 | 5.2 | 0.00 | 0.00 | 0.00 | 71 | 1007.0 |
| 20260506191027 | 68 | 227 | 2.6 | 7.0 | 0.00 | 0.00 | 0.00 | 67 | 1006.9 |
| 20260506190527 | 68 | 278 | 1.7 | 7.8 | 0.00 | 0.00 | 0.00 | 65 | 1006.9 |
| 20260506190027 | 68 | 257 | 1.7 | 6.1 | 0.00 | 0.00 | 0.00 | 64 | 1007.0 |
| 20260506185529 | 69 | 242 | 1.7 | 12.2 | 0.00 | 0.00 | 0.00 | 63 | 1007.0 |
| 20260506185029 | 69 | 226 | 3.5 | 12.2 | 0.00 | 0.00 | 0.00 | 62 | 1007.1 |
| 20260506184528 | 69 | 252 | 3.5 | 12.2 | 0.00 | 0.00 | 0.00 | 61 | 1007.0 |
| 20260506184029 | 70 | 149 | 1.7 | 13.0 | 0.00 | 0.00 | 0.00 | 60 | 1007.0 |
| 20260506183528 | 70 | 232 | 2.6 | 20.0 | 0.00 | 0.00 | 0.00 | 58 | 1007.0 |
| 20260506183028 | 71 | 234 | 1.7 | 6.1 | 0.00 | 0.00 | 0.00 | 56 | 1007.0 |
| 20260506182528 | 71 | 198 | 2.6 | 11.3 | 0.00 | 0.00 | 0.00 | 55 | 1007.1 |
| 20260506182028 | 71 | 215 | 1.7 | 11.3 | 0.00 | 0.00 | 0.00 | 54 | 1007.1 |
| 20260506181528 | 72 | 75 | 0.9 | 2.6 | 0.00 | 0.00 | 0.00 | 54 | 1007.1 |
| 20260506181048 | 72 | 232 | 0.9 | 3.5 | 0.00 | 0.00 | 0.00 | 53 | 1007.0 |
| 20260506180528 | 72 | 286 | 1.7 | 9.6 | 0.00 | 0.00 | 0.00 | 53 | 1007.2 |
| 20260506180027 | 72 | 211 | 2.6 | 11.3 | 0.00 | 0.00 | 0.00 | 52 | 1007.3 |
| 20260506175548 | 72 | 223 | 4.3 | 13.0 | 0.00 | 0.00 | 0.00 | 52 | 1007.3 |
| 20260506175027 | 72 | 247 | 3.5 | 13.0 | 0.00 | 0.00 | 0.00 | 52 | 1007.4 |
| 20260506174527 | 73 | 192 | 2.6 | 11.3 | 0.00 | 0.00 | 0.00 | 54 | 1007.3 |
| 20260506174049 | 72 | 193 | 3.5 | 11.3 | 0.00 | 0.00 | 0.00 | 55 | 1007.3 |
| 20260506173529 | 72 | 169 | 3.5 | 11.3 | 0.00 | 0.00 | 0.00 | 56 | 1007.5 |
| 20260506173029 | 72 | 172 | 3.5 | 15.6 | 0.00 | 0.00 | 0.00 | 56 | 1007.6 |
| 20260506172548 | 72 | 208 | 2.6 | 9.6 | 0.00 | 0.00 | 0.00 | 56 | 1007.5 |
| 20260506172028 | 72 | 195 | 4.3 | 11.3 | 0.00 | 0.00 | 0.00 | 56 | 1007.6 |
| 20260506171548 | 72 | 188 | 3.5 | 12.2 | 0.00 | 0.00 | 0.00 | 56 | 1007.5 |
| 20260506171028 | 72 | 209 | 3.5 | 12.2 | 0.00 | 0.00 | 0.00 | 57 | 1007.5 |
| 20260506170548 | 72 | 193 | 2.6 | 8.7 | 0.00 | 0.00 | 0.00 | 59 | 1007.6 |
| 20260506170028 | 71 | 160 | 4.3 | 12.2 | 0.00 | 0.00 | 0.00 | 58 | 1007.6 |
| 20260506165548 | 71 | 200 | 3.5 | 12.2 | 0.00 | 0.00 | 0.00 | 58 | 1007.8 |
| 20260506165028 | 71 | 234 | 3.5 | 11.3 | 0.00 | 0.00 | 0.00 | 57 | 1007.8 |
| 20260506164527 | 71 | 189 | 3.5 | 8.7 | 0.00 | 0.00 | 0.00 | 58 | 1007.9 |
| 20260506164027 | 71 | 280 | 2.6 | 7.0 | 0.00 | 0.00 | 0.00 | 58 | 1007.9 |
| 20260506163527 | 71 | 220 | 1.7 | 6.1 | 0.00 | 0.00 | 0.00 | 58 | 1007.9 |
| 20260506163027 | 71 | 155 | 2.6 | 9.6 | 0.00 | 0.00 | 0.00 | 58 | 1008.0 |
| 20260506162547 | 71 | 165 | 2.6 | 8.7 | 0.00 | 0.00 | 0.00 | 57 | 1008.2 |
| 20260506162027 | 72 | 231 | 2.6 | 8.7 | 0.00 | 0.00 | 0.00 | 57 | 1008.3 |
| 20260506161527 | 72 | 184 | 2.6 | 8.7 | 0.00 | 0.00 | 0.00 | 56 | 1008.4 |
| 20260506161028 | 72 | 169 | 1.7 | 7.0 | 0.00 | 0.00 | 0.00 | 57 | 1008.3 |
| 20260506160528 | 72 | 207 | 1.7 | 9.6 | 0.00 | 0.00 | 0.00 | 57 | 1008.5 |
| 20260506160028 | 72 | 288 | 2.6 | 6.1 | 0.00 | 0.00 | 0.00 | 56 | 1008.5 |
| 20260506155528 | 72 | 157 | 1.7 | 13.0 | 0.00 | 0.00 | 0.00 | 56 | 1008.7 |
| 20260506155028 | 72 | 230 | 3.5 | 13.0 | 0.00 | 0.00 | 0.00 | 55 | 1008.8 |
| 20260506154528 | 72 | 249 | 0.9 | 5.2 | 0.00 | 0.00 | 0.00 | 57 | 1008.7 |
| 20260506154048 | 72 | 230 | 1.7 | 9.6 | 0.00 | 0.00 | 0.00 | 56 | 1008.8 |
| 20260506153527 | 72 | 188 | 3.5 | 11.3 | 0.00 | 0.00 | 0.00 | 56 | 1008.9 |
| 20260506153027 | 72 | 243 | 3.5 | 14.8 | 0.00 | 0.00 | 0.00 | 55 | 1009.1 |
| 20260506152527 | 72 | 224 | 2.6 | 7.8 | 0.00 | 0.00 | 0.00 | 55 | 1009.0 |
| 20260506152029 | 73 | 211 | 3.5 | 8.7 | 0.00 | 0.00 | 0.00 | 55 | 1009.0 |
| 20260506151529 | 72 | 199 | 2.6 | 8.7 | 0.00 | 0.00 | 0.00 | 57 | 1009.1 |
| 20260506151029 | 72 | 212 | 3.5 | 13.0 | 0.00 | 0.00 | 0.00 | 57 | 1009.2 |
| 20260506150549 | 72 | 206 | 2.6 | 8.7 | 0.00 | 0.00 | 0.00 | 58 | 1009.2 |
| 20260506150049 | 71 | 238 | 2.6 | 7.0 | 0.00 | 0.00 | 0.00 | 58 | 1009.3 |
| 20260506145528 | 71 | 248 | 2.6 | 13.9 | 0.00 | 0.00 | 0.00 | 59 | 1009.3 |
| 20260506145028 | 71 | 206 | 1.7 | 8.7 | 0.00 | 0.00 | 0.00 | 60 | 1009.1 |
| 20260506144548 | 70 | 206 | 2.6 | 8.7 | 0.00 | 0.00 | 0.00 | 60 | 1009.2 |
| 20260506144028 | 70 | 230 | 2.6 | 8.7 | 0.00 | 0.00 | 0.00 | 61 | 1009.1 |
| 20260506143528 | 70 | 248 | 2.6 | 8.7 | 0.00 | 0.00 | 0.00 | 61 | 1009.2 |
| 20260506143028 | 70 | 223 | 2.6 | 8.7 | 0.00 | 0.00 | 0.00 | 62 | 1009.2 |
| 20260506142528 | 70 | 208 | 1.7 | 11.3 | 0.00 | 0.00 | 0.00 | 62 | 1009.1 |
| 20260506142028 | 69 | 196 | 2.6 | 11.3 | 0.00 | 0.00 | 0.00 | 64 | 1009.1 |
| 20260506141527 | 69 | 201 | 2.6 | 12.2 | 0.00 | 0.00 | 0.00 | 63 | 1009.2 |
| 20260506141027 | 69 | 186 | 2.6 | 9.6 | 0.00 | 0.00 | 0.00 | 65 | 1009.2 |
| 20260506140529 | 69 | 236 | 2.6 | 12.2 | 0.00 | 0.00 | 0.00 | 65 | 1009.3 |
| 20260506140029 | 69 | 208 | 2.6 | 9.6 | 0.00 | 0.00 | 0.00 | 65 | 1009.3 |
| 20260506135529 | 68 | 186 | 2.6 | 9.6 | 0.00 | 0.00 | 0.00 | 67 | 1009.3 |
| 20260506135028 | 67 | 154 | 1.7 | 7.0 | 0.00 | 0.00 | 0.00 | 68 | 1009.3 |
| 20260506134528 | 67 | 202 | 2.6 | 12.2 | 0.00 | 0.00 | 0.00 | 69 | 1009.4 |
| 20260506134028 | 66 | 217 | 2.6 | 9.6 | 0.00 | 0.00 | 0.00 | 69 | 1009.6 |
| 20260506133528 | 66 | 164 | 2.6 | 7.8 | 0.00 | 0.00 | 0.00 | 70 | 1009.8 |
| 20260506133028 | 66 | 178 | 0.9 | 5.2 | 0.00 | 0.00 | 0.00 | 72 | 1009.9 |
| 20260506132528 | 65 | 211 | 1.7 | 6.1 | 0.00 | 0.00 | 0.00 | 72 | 1009.9 |
| 20260506132027 | 65 | 190 | 0.9 | 7.8 | 0.00 | 0.00 | 0.00 | 71 | 1009.8 |
| 20260506131548 | 65 | 205 | 1.7 | 7.8 | 0.00 | 0.00 | 0.00 | 71 | 1009.8 |
| 20260506131027 | 65 | 266 | 0.9 | 7.8 | 0.00 | 0.00 | 0.00 | 73 | 1009.7 |
| 20260506130527 | 65 | 221 | 0.9 | 3.5 | 0.00 | 0.00 | 0.00 | 73 | 1009.8 |
| 20260506130027 | 65 | 198 | 1.7 | 6.1 | 0.00 | 0.00 | 0.00 | 72 | 1009.8 |
| 20260506125527 | 65 | 186 | 1.7 | 6.1 | 0.00 | 0.00 | 0.00 | 73 | 1009.8 |